YUZGU UA (53322 NORAD) Tracking and Keplerian Element Data

This shows tracking and keplerian element data for the satellite.

Feedback or suggestion? Click here.




ElementValue
Catalog53322
NameYUZGU UA
Epoch Orbit1908
Epoch Day325.14239259
Epoch Year2022
RAAN273.3883
Inclination51.6359
Eccentricity0.0008752
Argument of Perigee105.7374
Mean Anonmoly254.4588
Mean Motion15.66739373
Decay Rate0.0012312
L11 53322U 98067UA 22325.14239259 .00123120 00000+0 11322-2 0 9993
L22 53322 51.6359 273.3883 0008752 105.7374 254.4588 15.66739373 19083



Live tracking and technical data element details for YUZGU UA (NORAD 53322). YUZGU UA can be tracked NOW for your location showing map with azimuth and elevation plus other details from your city location.







IsCatalogInMostPopularTable: catalog: 53322, numindb: 12
Update: records affected: 1



GetName: 53322 YUZGU UA

Hit Count: updated at: Thu, 08 Dec 2022 19:27:06 GMT